ORBCOMM-X 1 21576U 91050C 25354.44316845 .00000242 00000+0 84251-4 0 9991 2 21576 98.3219 57.0438 0003372 3.2525 356.8687 14.43441294808986 ORBCOMM FM01 1 23545U 95017A 25354.25630266 .00005185 00000+0 50367-3 0 9992 2 23545 69.9626 329.2020 0004230 333.4473 26.6466 14.93183110640251 ORBCOMM FM02 1 23546U 95017B 25354.39006131 .00006535 00000+0 60749-3 0 9991 2 23546 69.9638 347.4487 0005396 346.2716 13.8293 14.94780549639940 ORBCOMM FM08 1 25112U 97084A 25353.94108769 .00000869 00000+0 27843-3 0 9990 2 25112 45.0120 195.6731 0006766 109.9134 250.2447 14.46613845468261 ORBCOMM FM10 1 25113U 97084B 25354.02036695 .00000746 00000+0 24608-3 0 9999 2 25113 45.0135 198.0177 0005205 77.2635 282.8798 14.46358957643411 ORBCOMM FM11 1 25114U 97084C 25354.26496900 .00000879 00000+0 28424-3 0 9992 2 25114 45.0119 197.8202 0006014 79.8395 280.3134 14.46103827468405 ORBCOMM FM12 1 25115U 97084D 25354.29387993 .00000851 00000+0 27638-3 0 9993 2 25115 45.0125 197.4122 0005104 77.5426 282.5997 14.46126717468201 ORBCOMM FM09 1 25116U 97084E 25354.27477432 .00000772 00000+0 25529-3 0 9999 2 25116 45.0129 198.6406 0006245 66.0957 294.0548 14.45964715468402 ORBCOMM FM05 1 25117U 97084F 25353.96153333 .00000914 00000+0 29024-3 0 9998 2 25117 45.0130 195.6034 0002764 79.7119 280.4044 14.46726064467506 ORBCOMM FM06 1 25118U 97084G 25354.31234410 .00000898 00000+0 28474-3 0 9994 2 25118 45.0121 193.4309 0001675 86.2509 83.4718 14.46890108468471 ORBCOMM FM07 1 25119U 97084H 25354.29211147 .00000912 00000+0 28857-3 0 9996 2 25119 45.0119 194.2773 0003548 77.5879 282.5370 14.46901672468461 ORBCOMM FM03 1 25158U 98007B 25354.28512948 .00000882 00000+0 35127-3 0 9991 2 25158 107.9647 158.0102 0046786 282.0950 77.4950 14.35043421450739 ORBCOMM FM04 1 25159U 98007C 25354.37694765 .00000874 00000+0 34733-3 0 9993 2 25159 107.9638 161.5471 0042596 279.2908 80.3417 14.35290284450938 ORBCOMM FM17 1 25413U 98046A 25354.38288947 .00000655 00000+0 27425-3 0 9998 2 25413 44.9937 98.5761 0001657 104.6692 255.4339 14.35551834429922 ORBCOMM FM18 1 25414U 98046B 25354.08591020 .00000786 00000+0 29704-3 0 9992 2 25414 44.9942 12.3121 0003481 170.6376 189.4538 14.39172019431021 ORBCOMM FM19 1 25415U 98046C 25354.13460191 .00000836 00000+0 31429-3 0 9996 2 25415 44.9954 14.3649 0002316 179.3453 223.9488 14.38991899430986 ORBCOMM FM20 1 25416U 98046D 25354.45355412 .00000608 00000+0 24737-3 0 9992 2 25416 44.9952 18.8730 0002145 244.5472 115.5154 14.37679235431063 ORBCOMM FM16 1 25417U 98046E 25354.42766331 .00000886 00000+0 32668-3 0 9996 2 25417 44.9950 8.0151 0003986 190.9013 169.1750 14.39550269431085 ORBCOMM FM15 1 25418U 98046F 25354.45092521 .00000792 00000+0 29905-3 0 9999 2 25418 44.9979 13.6183 0003874 192.8443 167.2308 14.39179185431079 ORBCOMM FM14 1 25419U 98046G 25354.41885882 .00000856 00000+0 31685-3 0 9995 2 25419 44.9969 11.4385 0002715 203.0969 156.9758 14.39598922431045 ORBCOMM FM13 1 25420U 98046H 25353.52095745 .00000659 00000+0 26132-3 0 9991 2 25420 44.9983 25.5662 0003862 156.4156 203.6870 14.38211613429916 ORBCOMM FM21 1 25475U 98053A 25354.47680528 .00000649 00000+0 26025-3 0 9993 2 25475 45.0076 107.0073 0001435 149.0151 211.0782 14.37809551424058 ORBCOMM FM22 1 25476U 98053B 25354.30189703 .00000769 00000+0 29275-3 0 9998 2 25476 45.0071 101.1033 0002423 113.8103 246.3000 14.38982755424074 ORBCOMM FM23 1 25477U 98053C 25354.03383751 .00000676 00000+0 26799-3 0 9993 2 25477 45.0074 110.9334 0001873 113.8755 246.2290 14.38046979424148 ORBCOMM FM24 1 25478U 98053D 25354.38172632 .00000762 00000+0 29239-3 0 9994 2 25478 45.0071 105.9129 0001915 131.3701 228.7312 14.38671644424250 ORBCOMM FM25 1 25479U 98053E 25354.49582419 .00000761 00000+0 29230-3 0 9995 2 25479 45.0064 103.6712 0004235 121.3630 238.7633 14.38639608424569 ORBCOMM FM26 1 25480U 98053F 25354.00874061 .00000628 00000+0 25419-3 0 9998 2 25480 45.0061 103.8324 0006321 128.8766 231.2647 14.37610007424383 ORBCOMM FM27 1 25481U 98053G 25354.27094382 .00000867 00000+0 32641-3 0 9998 2 25481 45.0048 104.8694 0001584 181.3016 178.7829 14.38674291424460 ORBCOMM FM28 1 25482U 98053H 25354.49605534 .00000672 00000+0 26253-3 0 9996 2 25482 45.0062 41.0718 0004777 182.4903 177.5922 14.38803030425186 ORBCOMM FM30 1 25980U 99065A 25354.18587560 .00000559 00000+0 23067-3 0 9991 2 25980 45.0321 289.0298 0006320 237.4047 122.6192 14.37778304361217 ORBCOMM FM31 1 25981U 99065B 25354.16787211 .00000646 00000+0 25973-3 0 9990 2 25981 45.0231 282.5674 0004538 268.9368 91.0960 14.37706334360763 ORBCOMM FM32 1 25982U 99065C 25354.19807918 .00000604 00000+0 25042-3 0 9992 2 25982 45.0165 300.2459 0006943 257.5418 102.4654 14.36763379361344 ORBCOMM FM33 1 25983U 99065D 25354.27170808 .00000618 00000+0 23671-3 0 9994 2 25983 45.0265 193.9229 0007751 280.4388 79.5588 14.40544414362890 ORBCOMM FM36 1 25984U 99065E 25354.19832763 .00000869 00000+0 32656-3 0 9992 2 25984 45.0395 289.0200 0001264 177.3642 182.7213 14.38730124361209 ORBCOMM FM35 1 25985U 99065F 25354.03695935 .00000641 00000+0 25860-3 0 9991 2 25985 45.0402 296.3332 0004693 269.0000 91.0311 14.37634078361528 ORBCOMM FM34 1 25986U 99065G 25354.21229846 .00000653 00000+0 26277-3 0 9992 2 25986 45.0396 295.9733 0003338 226.4538 133.6034 14.37584612361667 ORBCOMM FM38 1 33060U 08031A 25351.76850136 .00001404 00000+0 20080-3 0 9997 2 33060 48.4372 159.8035 0004435 120.0486 240.0870 14.82282580941971 ORBCOMM FM41 1 33061U 08031B 25354.21679881 .00001107 00000+0 16561-3 0 9996 2 33061 48.4426 156.5574 0003577 115.3066 54.8516 14.81843948941812 ORBCOMM FM29 1 33062U 08031C 25353.70156030 .00001120 00000+0 16676-3 0 9998 2 33062 48.4378 166.5740 0005290 109.5339 354.1035 14.81989380941652 ORBCOMM FM39 1 33063U 08031D 25354.23809847 .00000921 00000+0 14702-3 0 9995 2 33063 48.4390 190.3975 0006132 78.1100 282.0503 14.80429652941351 ORBCOMM FM37 1 33064U 08031E 25354.52539699 .00000891 00000+0 14248-3 0 9994 2 33064 48.4383 177.2609 0004763 102.0506 287.9508 14.80627035941654 ORBCOMM FM40 1 33065U 08031F 25354.47804346 .00001411 00000+0 19771-3 0 9998 2 33065 48.4405 158.2539 0005846 119.5013 274.9834 14.83137775941805 VESSELSAT 1 1 37840U 11058C 25354.39388941 .00000332 00000+0 36447-4 0 9996 2 37840 19.9628 47.1072 0013839 75.0501 285.1435 14.11400105732649 ORBCOMM FM109 1 40086U 14040A 25354.05705981 .00000276 00000+0 95135-4 0 9992 2 40086 47.0020 218.2381 0001251 121.3772 238.7236 14.58554345608199 ORBCOMM FM107 1 40087U 14040B 25354.00746506 .00000349 00000+0 11052-3 0 9992 2 40087 47.0035 219.3581 0000800 30.2753 329.8178 14.58631213608261 ORBCOMM FM106 1 40088U 14040C 25354.22891627 .00000733 00000+0 15208-3 0 9996 2 40088 47.0615 25.3896 0017026 214.7428 145.2352 14.70047278610843 ORBCOMM FM111 1 40089U 14040D 25354.00739292 .00001395 00000+0 17437-3 0 9993 2 40089 47.0004 211.0217 0028471 2.2633 357.8389 14.87756375617886 ORBCOMM FM104 1 40090U 14040E 25354.06395762 .00000331 00000+0 11054-3 0 9999 2 40090 47.0048 254.9509 0016649 333.1667 26.8355 14.57018196607720 ORBCOMM FM103 1 40091U 14040F 25354.05871106 .00000328 00000+0 10627-3 0 9991 2 40091 47.0041 219.7799 0001399 40.0676 320.0313 14.58544965591234 ORBCOMM FM114 1 41179U 15081A 25354.41789338 .00000239 00000+0 87369-4 0 9999 2 41179 47.0038 127.0360 0001756 115.9094 244.1973 14.58564428531650 ORBCOMM FM119 1 41180U 15081B 25354.48271970 .00000410 00000+0 12383-3 0 9990 2 41180 47.0015 36.0887 0001493 225.4170 134.6594 14.58513773532919 ORBCOMM FM105 1 41181U 15081C 25354.18147738 .00000135 00000+0 82428-4 0 9994 2 41181 47.0019 60.6359 0000813 70.9617 289.1351 14.45410551527653 ORBCOMM FM110 1 41182U 15081D 25354.40772211 .00000509 00000+0 14464-3 0 9999 2 41182 47.0010 126.5829 0002567 313.0613 47.0058 14.58593873531523 ORBCOMM FM118 1 41183U 15081E 25354.37372801 .00000405 00000+0 12267-3 0 9991 2 41183 47.0032 127.0429 0003247 278.2608 81.7909 14.58585880531622 ORBCOMM FM112 1 41184U 15081F 25353.41741370 .00000464 00000+0 13510-3 0 9994 2 41184 47.0000 40.0961 0000696 133.0760 227.0184 14.58589117532702 ORBCOMM FM113 1 41185U 15081G 25354.49068125 .00000557 00000+0 15482-3 0 9997 2 41185 47.0015 35.3803 0000741 172.7143 187.3754 14.58587676532841 ORBCOMM FM115 1 41186U 15081H 25354.39287823 .00000413 00000+0 11410-3 0 9993 2 41186 46.9975 233.6995 0001035 224.9101 135.1703 14.62934189535030 ORBCOMM FM108 1 41187U 15081J 25354.24782868 .00000655 00000+0 17572-3 0 9990 2 41187 47.0060 308.0394 0001778 77.7236 282.3849 14.58570466533959 ORBCOMM FM117 1 41188U 15081K 25354.07653918 .00000607 00000+0 16549-3 0 9995 2 41188 47.0023 307.5439 0002064 89.0579 271.0543 14.58595547533973 ORBCOMM FM116 1 41189U 15081L 25354.39938216 .00000663 00000+0 17752-3 0 9997 2 41189 47.0033 35.7891 0002579 291.3086 68.7524 14.58589949532832